Location: Newark
(42.0275°N, 4.0028°W)
Time: 00:45:05
(UTC+00:00)

N. Korean satellite - Visible Passes

Search period start: 01 October 2020 00:00
Search period end: 11 October 2020 00:00
Orbit: 455 x 503 km, 97.2° (Epoch: 30 September)

Date Brightness Start Highest point End Pass type
(mag) Time Alt. Az. Time Alt. Az. Time Alt. Az.
02 Oct 8.2 05:26:23 10° NNE 05:29:46 38° E 05:33:03 10° SSE visible
03 Oct 9.7 05:01:01 10° NE 05:03:34 18° E 05:06:04 10° SE visible
04 Oct 10.8 18:19:10 10° W 18:19:42 10° W 18:20:15 10° W visible
05 Oct 7.1 05:41:25 10° NNE 05:44:57 63° E 05:48:24 10° S visible
06 Oct 8.9 05:15:43 10° NE 05:18:49 28° E 05:21:50 10° SSE visible
07 Oct 9.9 04:50:45 10° ENE 04:52:33 13° E 04:54:20 10° ESE visible
09 Oct 7.9 05:30:35 10° NNE 05:33:58 43° E 05:37:16 10° S visible
10 Oct 9.5 05:05:05 10° NE 05:07:46 20° E 05:10:23 10° SE visible
